Wind_Speed
24 23 23 24 25 24 23 22 22 22 22 22 22 21 20 19 19 18 17 16 16 16 16 15 14 13 13 14 15 15 15 15 15 15 16 16 16 16 16 15 15 15 14 14 14 14 15 14 14 13 14 14 15 14 14 13 13 13 13 14 14 14 13 12 12 11 10 8 6 5 5 4 5 6 7 7 7 7 8 9 11 12 12 13 14
25 24 23 23 24 24 23 22 22 22 23 23 23 23 21 20 20 19 18 18 17 17 17 16 16 15 14 15 15 16 16 15 16 16 17 17 17 17 17 16 16 15 15 15 15 14 14 14 14 13 14 15 15 15 14 12 12 12 12 13 14 13 12 11 11 11 10 8 6 5 5 5 5 7 7 8 9 9 9 10 11 12 12 12 13
27 26 25 24 23 23 23 23 22 22 23 24 24 24 23 21 21 21 20 19 18 18 17 17 17 17 16 16 16 16 17 16 16 17 17 17 17 17 17 16 16 16 16 15 15 14 14 14 14 13 13 14 14 14 14 13 13 13 12 13 12 11 10 10 10 11 10 8 6 5 5 6 6 7 8 8 9 10 10 10 11 12 12 12 12
29 28 27 25 24 24 24 23 23 23 23 24 25 24 23 22 22 22 21 20 19 19 18 18 18 18 18 18 17 17 17 17 17 16 16 16 17 17 16 16 16 16 16 16 15 15 15 15 15 13 13 14 14 14 14 14 14 14 13 13 12 10 10 11 11 11 10 9 7 6 6 7 7 8 8 8 8 9 10 10 11 11 12 13 13
30 28 28 27 27 27 26 25 24 24 24 25 25 24 24 23 22 22 21 21 20 19 19 20 20 20 19 18 17 17 17 17 17 16 16 16 17 17 17 16 16 16 17 17 15 15 15 16 15 14 14 15 15 14 14 13 14 14 13 12 12 11 11 12 12 11 11 11 9 7 7 8 8 8 9 9 8 9 9 10 10 11 11 12 14
30 29 28 28 29 29 29 27 26 25 24 24 24 24 24 23 23 22 22 21 20 19 20 20 20 20 19 18 17 16 16 16 17 16 16 17 17 17 17 17 17 17 17 17 16 15 16 16 16 16 16 16 15 14 14 13 13 13 13 13 14 14 14 13 12 12 12 11 10 9 9 9 9 9 10 10 10 10 11 10 10 11 12 13 14
30 28 28 29 31 30 29 28 27 26 25 24 24 25 25 24 23 23 23 22 20 20 20 21 20 19 19 18 17 17 17 17 17 17 17 17 17 17 17 18 18 18 18 18 17 16 16 16 16 16 17 17 16 15 14 13 14 14 14 15 15 15 14 14 14 13 12 12 12 11 11 11 11 11 11 11 11 11 12 12 12 13 13 14 16
31 30 29 30 32 31 29 29 29 28 27 26 25 25 25 25 24 24 23 23 21 21 21 20 19 19 19 18 17 17 18 18 18 18 18 17 17 17 17 18 18 18 19 18 18 17 17 17 17 17 18 18 17 15 14 14 14 14 15 15 15 15 13 13 14 14 14 14 13 13 13 13 13 12 12 11 11 12 13 13 14 15 16 16 16
31 31 31 32 33 32 29 28 28 29 29 27 26 26 26 25 25 24 24 23 22 22 21 21 20 20 19 19 18 18 18 18 19 18 18 17 17 18 18 18 18 18 18 18 18 18 18 18 18 18 18 18 17 16 16 15 15 16 16 16 16 15 14 14 15 15 14 14 14 14 14 14 14 14 13 13 13 13 14 15 16 17 18 17 16
30 31 32 32 34 34 31 29 29 29 29 28 27 26 26 26 26 25 25 24 23 23 22 21 21 21 21 20 19 18 18 19 18 17 16 16 17 18 19 19 18 18 18 19 19 19 19 19 19 20 19 18 18 18 17 17 17 17 17 17 16 16 16 16 16 15 15 15 15 14 14 14 13 13 15 15 15 16 16 17 17 17 17 17 16
27 30 31 31 32 32 31 30 32 32 31 30 29 27 26 26 26 26 26 25 25 24 23 23 23 22 22 22 21 20 20 19 17 16 15 15 16 17 19 19 19 19 19 19 20 20 20 20 20 20 20 20 20 20 19 18 18 18 18 18 17 17 17 17 17 16 15 15 15 14 14 15 15 15 16 16 16 17 17 17 18 17 16 15 14
24 27 29 31 32 32 32 32 35 36 34 31 29 28 27 26 26 27 27 27 26 25 25 25 25 24 24 23 23 22 21 20 18 17 16 15 15 16 18 18 19 19 20 20 21 21 21 21 20 20 20 21 21 21 20 20 19 19 19 19 18 17 17 17 17 16 15 16 16 15 15 16 16 16 15 16 17 18 17 16 16 16 15 15 13
22 25 27 30 33 35 35 35 36 37 37 34 30 29 28 27 27 27 27 27 27 26 26 26 26 26 25 25 24 24 23 21 19 18 17 17 17 18 19 19 19 19 20 20 21 21 21 21 21 20 20 21 22 22 22 22 21 19 19 20 20 18 17 17 17 16 16 16 16 15 15 15 15 15 16 17 17 16 15 14 14 14 15 14 13
18 21 24 28 32 33 34 36 36 36 37 34 30 28 28 28 28 27 26 26 26 26 27 26 27 27 27 26 26 25 24 23 21 19 19 19 19 20 20 20 19 20 20 21 21 21 22 22 22 21 22 22 23 22 22 23 23 21 20 21 21 20 19 18 18 17 16 15 15 15 15 15 15 16 17 17 17 15 14 14 14 15 15 13 12
18 20 23 26 29 30 32 34 34 34 35 34 31 29 29 28 27 26 26 26 27 26 25 25 26 26 27 28 27 26 26 25 23 22 21 21 21 22 22 21 21 22 22 21 21 21 21 22 22 22 22 22 22 22 23 23 23 22 21 20 20 20 19 18 18 16 15 15 16 16 16 16 15 16 17 18 17 16 15 15 15 14 12 11 10
15 18 22 26 27 28 29 30 30 31 32 31 30 28 26 23 22 25 28 28 27 25 23 24 26 26 27 29 29 29 29 28 26 24 24 24 24 23 24 24 23 24 24 24 23 22 22 23 23 23 23 22 21 21 22 23 22 21 20 20 20 20 19 19 18 18 18 18 18 18 17 16 16 16 17 17 16 15 15 14 13 11 10 10 9
8 10 15 21 24 24 25 26 27 27 26 24 23 22 21 19 20 23 25 25 24 22 20 21 23 23 24 27 29 30 30 29 28 26 24 23 24 24 25 26 26 26 26 26 26 25 24 24 25 25 25 24 23 21 22 23 24 23 21 20 20 20 19 19 18 18 18 19 19 18 18 17 17 17 16 16 15 14 13 11 11 10 10 10 8
8 7 4 3 6 9 10 11 14 16 17 15 14 13 13 15 17 17 17 16 17 17 16 16 17 17 18 21 23 26 28 29 28 26 23 20 20 21 23 25 27 28 28 28 28 28 28 28 28 27 27 26 25 24 24 25 27 27 25 23 22 21 21 20 19 18 18 17 18 18 18 17 17 15 15 15 13 12 10 9 10 10 8 8 9
12 11 10 9 9 10 8 6 6 8 8 8 9 9 9 10 11 11 11 12 13 14 14 14 15 16 17 17 17 19 21 22 22 23 22 21 20 21 22 25 27 27 28 29 29 30 31 32 31 31 31 29 28 27 26 27 29 30 29 27 24 23 23 23 20 19 18 18 18 18 17 16 15 14 14 13 11 10 9 8 9 9 7 8 9
17 16 15 13 12 11 10 9 8 8 8 6 4 5 6 8 9 10 10 11 12 14 14 13 13 14 15 17 17 17 18 19 19 20 22 23 24 24 25 27 28 29 29 30 31 32 34 34 34 34 34 33 31 30 28 29 30 32 32 30 28 26 26 25 22 19 19 19 18 17 16 14 14 13 11 10 9 8 8 7 7 8 8 8 10
20 20 19 18 16 15 14 13 12 12 10 7 3 0 2 3 5 8 9 10 11 14 15 15 16 17 18 19 20 19 20 20 21 22 23 24 26 27 28 29 30 31 32 33 33 34 35 36 36 36 35 35 34 32 31 31 31 33 34 33 30 29 29 27 23 21 21 20 18 16 14 13 13 12 10 9 8 8 7 7 8 8 9 9 9
19 20 20 20 19 18 17 17 16 16 15 13 9 5 4 3 2 2 5 6 8 10 13 15 17 19 20 21 21 21 21 21 21 23 24 25 26 27 28 29 30 31 32 34 35 35 36 37 38 37 37 37 35 34 33 32 31 31 33 33 31 30 31 29 24 21 22 21 18 15 13 12 11 11 9 8 8 7 7 7 8 8 9 9 10
17 18 19 19 19 18 18 17 17 16 16 15 13 11 9 7 5 3 3 3 4 6 8 10 12 14 16 16 17 17 16 17 17 18 20 22 23 24 25 26 27 29 30 32 33 33 34 35 36 36 38 38 37 36 35 33 30 30 31 31 29 29 29 26 22 21 22 21 17 14 12 10 10 11 10 9 7 6 5 6 7 8 10 11 11
16 17 18 19 19 19 18 17 16 16 15 14 12 11 11 10 9 7 5 2 2 4 6 8 9 9 10 10 10 10 10 11 12 12 14 15 17 18 18 19 20 22 23 24 26 27 28 30 31 33 34 35 36 36 35 34 32 31 31 31 30 29 27 24 22 21 21 18 14 11 10 11 12 12 11 9 6 4 4 6 7 9 10 11 11
15 16 17 18 18 19 18 18 17 16 15 14 13 12 11 10 10 10 9 6 3 1 4 6 7 7 7 7 6 6 6 5 4 4 5 5 7 8 9 11 12 12 13 16 17 19 21 23 26 29 32 33 34 34 32 30 29 29 30 33 34 33 29 24 21 20 19 15 12 11 12 13 14 13 10 6 2 2 5 7 9 10 10 11 11
14 15 15 16 16 16 16 17 17 17 15 14 14 13 12 11 11 10 10 10 8 6 4 3 3 2 1 1 1 1 3 4 5 4 4 5 5 6 7 8 9 8 9 11 11 12 14 16 18 20 24 28 30 29 27 24 23 25 28 32 34 32 28 24 21 19 17 15 14 14 15 16 15 11 7 3 1 3 6 8 9 10 10 11 11
13 14 14 15 14 15 15 16 17 17 17 16 15 14 12 12 10 9 10 10 11 10 9 7 8 7 7 8 9 8 8 8 8 7 7 8 8 9 9 10 10 9 10 10 10 10 11 13 15 17 17 17 19 20 21 22 23 26 28 29 29 28 25 23 20 19 17 15 14 15 16 15 10 6 4 2 1 3 5 7 8 9 9 10 10
12 13 13 13 13 14 15 15 16 16 17 17 16 15 13 12 11 10 11 11 11 11 10 9 9 10 10 10 10 9 8 7 6 5 6 7 8 9 10 11 10 10 10 10 10 10 10 12 15 17 14 11 11 13 16 20 22 23 22 22 23 21 20 20 20 18 16 14 15 16 14 10 7 6 4 2 2 3 5 6 6 7 8 9 10
12 12 12 12 12 13 13 13 14 15 16 16 16 15 14 13 12 12 12 12 11 11 10 8 8 8 7 6 6 5 5 5 6 7 8 9 9 9 10 10 10 10 10 9 10 10 10 10 12 14 12 8 5 5 7 9 12 13 13 14 13 13 15 17 18 16 16 16 15 14 11 10 9 6 4 2 3 4 5 5 6 7 8 9 11
11 11 11 11 10 10 10 11 11 12 14 15 15 15 14 14 12 12 12 12 12 11 9 7 6 4 3 4 5 6 7 8 9 10 11 11 11 11 10 9 8 8 8 8 8 9 9 7 7 8 8 6 3 3 2 0 2 5 8 10 11 12 14 15 16 16 16 14 11 10 10 9 6 4 3 3 4 5 6 6 7 8 9 12 14
10 10 10 10 9 9 8 8 9 10 11 12 12 12 13 13 12 12 12 12 12 12 11 9 8 7 6 6 6 7 7 7 7 8 8 9 9 9 8 7 6 6 6 6 6 7 7 5 4 4 4 3 3 2 1 1 3 6 9 10 12 14 15 15 14 13 12 11 10 10 9 6 4 3 3 3 4 5 6 7 8 9 12 15 18
9 8 8 8 8 8 8 7 8 8 9 9 9 9 10 10 10 10 11 11 11 12 12 11 11 11 10 8 7 7 7 7 6 6 6 6 6 6 6 6 5 4 4 4 4 5 4 4 3 2 1 2 2 2 3 4 6 9 11 12 15 16 15 14 12 11 10 10 10 8 6 4 2 2 2 3 4 5 6 7 9 12 16 20 21
8 8 8 7 7 7 7 8 8 7 8 7 6 6 6 7 7 8 9 9 10 11 11 11 12 12 12 10 10 10 11 11 11 10 9 9 8 7 7 8 8 6 5 5 4 4 4 4 2 1 0 1 2 4 6 7 9 13 15 15 16 15 13 12 12 11 10 9 6 4 3 1 1 2 2 3 4 6 7 9 12 16 20 22 22
7 8 8 8 8 8 7 7 7 7 7 7 5 4 4 4 4 6 7 8 8 9 10 11 12 12 11 10 9 10 11 12 12 12 12 10 10 11 11 11 9 8 6 6 6 6 6 5 3 2 1 1 2 5 7 9 11 15 17 17 16 14 13 12 10 8 7 5 3 2 1 1 2 2 3 5 6 8 10 13 16 20 23 23 23
6 7 7 8 8 8 7 7 7 7 7 7 6 4 2 2 3 4 5 6 6 7 8 9 10 10 10 9 8 8 9 10 11 11 11 10 10 12 12 10 9 8 7 7 8 9 9 8 6 3 1 3 5 8 10 12 14 15 16 16 15 14 12 10 8 5 3 2 1 2 3 3 3 4 5 7 9 12 14 17 19 22 23 24 24
6 6 7 7 7 7 7 7 6 6 6 6 6 4 2 1 1 3 3 4 4 5 6 7 8 9 8 8 8 8 9 10 11 11 11 10 10 10 10 9 9 9 10 10 10 10 10 10 8 6 3 4 7 10 11 12 13 12 11 10 9 8 6 5 4 2 1 1 3 4 5 5 7 8 10 12 14 16 18 19 22 23 24 24 26
6 6 6 6 6 6 6 6 6 6 6 6 5 4 3 1 1 1 2 3 3 4 5 6 7 8 8 8 8 8 10 10 11 11 11 10 8 7 8 9 9 9 10 10 9 9 10 10 10 9 7 7 8 8 7 7 6 6 4 4 3 2 1 1 1 1 2 3 4 6 7 9 12 13 15 16 18 19 20 22 24 25 26 27 30
8 7 6 6 6 6 6 6 6 5 5 5 5 4 2 2 3 3 3 3 3 3 4 5 6 7 7 7 7 9 10 11 10 9 8 8 8 7 8 8 8 8 9 9 8 7 8 9 9 10 9 9 8 6 5 3 2 2 1 1 0 0 1 2 2 3 4 6 8 10 12 14 16 16 17 18 19 21 23 24 25 27 29 30 30
11 9 8 7 7 7 7 7 6 6 5 5 5 4 3 3 4 4 4 5 4 4 4 5 5 6 6 6 6 8 9 8 7 7 7 8 8 8 8 7 6 5 6 6 6 5 6 6 7 7 7 7 6 5 4 3 2 1 2 3 3 3 4 5 7 8 9 11 12 14 15 16 17 18 19 20 22 24 25 26 27 29 29 28 25
12 12 11 10 8 8 8 8 7 6 6 5 5 5 4 4 4 4 5 6 5 5 5 5 5 5 5 5 6 6 7 6 5 5 6 7 7 7 7 6 5 4 4 3 2 2 2 3 3 3 3 4 4 4 4 4 4 4 5 6 7 8 8 9 10 12 13 14 15 16 17 18 19 20 21 23 25 26 27 28 29 28 24 20 16
12 12 12 12 11 10 9 9 8 7 6 6 5 5 5 5 5 5 6 5 5 5 5 5 5 5 5 5 6 6 5 4 3 4 5 5 5 6 5 4 4 3 2 1 1 1 1 1 2 2 3 3 3 4 4 5 6 7 8 8 9 10 11 12 13 14 15 15 16 17 19 20 21 22 24 26 27 28 28 27 24 20 16 13 10
12 12 12 12 12 12 11 10 9 8 7 6 5 5 5 5 5 5 6 5 5 4 4 4 4 5 5 5 6 5 4 3 2 3 3 3 3 3 3 2 2 1 0 1 2 2 3 4 4 5 5 5 6 6 6 7 7 8 9 9 10 11 12 13 14 15 16 17 18 20 21 22 23 24 25 26 26 25 23 19 16 13 11 9 7
14 13 13 12 12 12 12 11 10 9 9 8 6 6 6 6 5 5 5 5 4 4 4 5 5 5 6 6 6 5 3 2 2 2 2 2 2 2 2 2 2 2 2 3 3 4 5 6 6 7 7 8 8 8 9 9 10 10 11 11 12 13 14 14 15 16 17 18 20 21 22 22 23 24 23 22 20 17 14 11 10 9 8 6 4
14 14 13 13 13 13 12 12 11 11 10 10 9 7 7 6 6 6 5 5 4 5 5 6 6 7 7 6 6 5 3 3 3 3 3 3 2 2 2 2 3 4 4 4 5 6 6 6 7 8 9 9 9 9 9 9 10 10 11 12 12 13 14 15 16 17 18 19 20 20 21 20 20 18 16 14 12 10 8 8 8 7 5 3 2
13 13 13 13 13 13 13 13 12 12 12 12 11 9 8 7 7 6 6 5 5 5 6 7 7 7 7 6 5 4 3 3 3 3 3 2 2 2 3 3 3 4 5 5 6 6 6 6 6 7 7 8 8 8 8 8 8 8 9 9 10 11 12 14 15 17 17 18 17 16 15 13 11 10 8 8 7 7 7 7 6 5 4 3 2
13 13 13 14 13 13 12 12 12 13 13 12 11 10 10 10 9 9 9 8 7 7 8 8 8 7 6 6 5 4 3 3 3 3 3 2 3 3 3 3 3 3 4 6 7 7 7 6 6 7 7 7 7 7 7 7 7 8 8 9 10 11 12 12 12 11 10 9 8 7 7 6 6 6 6 6 6 6 6 6 4 3 2 2 2
15 15 15 15 14 14 13 12 12 13 13 12 12 12 11 11 11 12 12 11 10 10 9 9 9 8 7 7 6 5 4 3 3 3 3 3 4 4 4 4 4 3 4 6 7 8 7 7 7 6 6 6 6 7 7 7 8 8 9 9 11 12 11 9 6 4 3 3 3 3 4 4 4 5 5 5 5 6 5 4 3 2 2 3 3
13 14 15 15 15 15 15 14 14 14 13 13 14 14 13 12 13 15 16 15 13 11 11 11 10 9 8 7 6 5 4 3 3 3 3 4 4 5 5 5 5 5 4 4 6 8 9 9 8 7 6 6 7 8 8 8 8 9 10 11 12 11 8 4 2 2 2 2 2 2 2 2 3 4 4 4 4 4 4 3 2 2 3 3 3
10 11 12 12 13 14 15 15 14 14 14 13 13 14 14 13 14 16 18 17 14 12 12 12 12 10 8 7 7 5 4 4 3 4 4 5 5 5 6 6 7 7 6 4 4 6 9 9 8 6 6 7 8 9 9 9 9 10 11 12 11 7 3 2 2 2 3 3 2 2 2 2 2 3 3 3 4 4 3 2 2 3 3 3 4
7 7 7 8 10 11 13 13 14 14 13 13 12 12 12 12 12 15 18 17 13 12 12 13 12 10 9 7 6 5 4 4 5 5 6 6 6 6 7 8 8 9 9 8 5 5 6 6 6 6 6 7 8 9 9 9 10 12 12 10 6 2 1 2 2 3 3 3 3 3 3 3 3 4 3 3 4 4 3 3 3 3 4 4 4
4 3 4 5 7 8 9 10 11 12 12 12 11 11 10 9 9 12 16 15 12 11 12 13 13 11 9 7 7 6 6 6 6 7 7 7 7 7 8 9 9 11 11 9 5 3 4 5 6 6 8 9 9 9 9 11 12 11 8 4 1 1 1 1 2 3 3 3 3 3 3 3 4 4 4 4 4 5 5 4 4 4 4 3 3
Wind_Direction
231 233 233 232 232 229 227 227 227 228 230 230 231 233 234 233 233 234 234 235 236 235 233 233 234 235 236 236 239 242 244 242 241 242 245 248 251 252 253 252 251 253 256 258 260 262 263 265 266 268 268 267 265 263 261 262 264 267 270 271 271 271 271 273 276 282 292 298 301 310 317 323 324 318 319 320 314 309 312 317 321 326 332 336 337
235 235 236 237 235 231 229 229 228 229 230 231 232 233 233 232 232 234 235 234 233 233 234 233 234 236 238 240 242 244 244 242 240 242 245 248 251 253 254 254 252 253 256 257 258 260 264 265 265 266 267 267 266 262 259 258 261 266 270 272 273 273 270 268 270 277 288 296 302 310 314 319 320 313 312 313 312 314 320 326 331 334 337 342 342
237 238 239 240 238 234 231 230 230 230 231 232 233 235 235 232 232 233 235 236 233 232 233 234 235 237 240 243 244 245 244 242 240 243 246 248 250 252 255 257 257 256 257 257 257 258 261 263 264 265 266 267 267 263 258 255 257 261 264 268 272 271 264 260 265 274 284 292 298 304 311 317 318 312 309 310 312 316 322 328 331 333 334 336 335
239 240 241 243 242 239 236 233 232 230 231 233 234 236 237 235 233 232 233 236 236 233 233 234 235 237 240 243 245 246 246 244 244 246 248 251 252 253 255 258 258 258 258 257 257 257 258 259 262 263 264 265 265 264 260 257 258 261 262 264 267 263 256 258 264 269 276 286 293 296 306 314 314 311 309 308 308 310 316 322 325 327 328 329 330
240 240 241 243 244 242 241 239 237 233 232 234 236 237 238 238 237 233 232 234 235 235 234 234 236 237 240 243 245 247 248 247 246 247 250 253 253 254 255 256 257 258 259 258 255 254 254 255 258 260 261 262 264 263 261 258 259 261 259 258 259 256 255 259 262 264 270 280 287 290 302 310 310 310 310 306 305 306 310 316 320 320 321 325 329
243 242 243 246 248 246 245 244 242 240 237 236 237 238 238 239 238 236 233 232 233 236 236 236 238 240 242 245 247 248 248 246 245 246 250 253 253 253 254 254 255 256 257 256 254 252 252 253 255 256 256 258 261 261 260 259 258 258 256 255 255 257 259 259 258 261 269 276 281 286 295 301 303 308 311 309 308 309 312 315 316 316 317 322 328
244 244 246 248 250 250 249 248 246 245 243 241 240 240 239 239 240 238 236 233 233 235 236 237 240 243 244 244 245 245 245 244 244 244 247 249 250 251 253 254 255 255 255 254 252 251 252 253 254 254 254 255 258 260 259 257 256 256 256 256 256 258 260 258 256 260 267 273 276 283 290 295 298 305 312 315 314 310 310 313 314 315 318 321 325
247 246 246 246 247 248 249 249 248 248 247 246 243 242 242 241 240 240 238 236 236 236 237 238 240 242 242 241 241 243 244 242 242 243 244 245 248 251 253 254 255 255 253 252 251 252 253 254 254 254 255 256 257 258 257 256 257 258 257 254 253 255 258 258 257 259 265 270 274 279 284 289 292 298 311 319 318 312 309 311 315 319 321 323 325
250 249 247 246 247 249 248 248 250 250 248 247 246 245 244 242 242 241 240 238 238 237 237 237 239 240 239 238 238 240 242 241 240 240 242 245 248 251 254 254 255 255 253 251 251 253 254 255 255 255 256 257 256 255 254 254 255 255 254 250 248 251 256 259 259 261 264 269 274 277 280 283 286 294 307 315 315 314 313 314 317 319 321 324 326
254 252 249 249 251 251 249 248 250 251 250 248 246 244 243 243 242 241 240 238 238 238 238 238 240 240 238 236 236 239 242 242 239 239 242 246 249 252 253 253 253 254 253 251 251 253 255 256 257 257 257 255 253 252 253 253 253 254 252 250 249 252 256 258 260 262 264 268 273 275 274 275 278 288 300 308 311 315 315 314 315 317 320 324 327
254 253 252 253 254 252 250 250 252 253 252 250 246 243 242 243 243 242 239 238 238 237 237 238 240 240 239 237 236 238 241 240 239 241 244 248 251 253 253 252 251 251 252 253 253 254 255 256 257 259 259 256 254 253 253 253 254 254 253 251 252 255 257 259 259 260 262 267 272 273 271 273 277 284 295 303 307 311 312 312 313 315 318 322 327
253 255 255 255 255 255 253 253 255 256 256 254 248 242 238 239 243 243 240 239 239 238 237 237 238 239 239 239 237 238 238 237 236 240 244 248 251 253 254 253 253 253 254 255 257 257 257 257 257 258 259 259 258 255 253 252 251 251 253 254 253 254 257 259 258 259 262 267 272 274 274 276 280 285 290 295 299 304 308 308 309 311 313 318 323
253 255 256 255 255 255 253 253 253 254 257 257 250 243 236 235 240 245 244 242 242 242 242 241 240 239 239 239 238 237 237 236 234 238 244 247 249 252 253 253 254 257 258 259 261 262 261 260 258 258 259 259 258 257 256 256 257 255 253 254 255 255 257 258 258 261 265 268 272 275 276 278 281 283 286 289 294 300 303 304 305 307 308 313 317
263 260 258 257 256 256 256 255 251 249 252 254 253 249 241 233 235 242 245 245 244 244 245 245 245 243 241 239 238 237 240 240 239 242 248 250 252 254 254 253 254 257 260 261 262 263 263 262 261 260 259 259 259 260 260 259 260 257 253 253 255 256 257 258 260 262 263 267 271 274 275 276 279 283 286 289 291 294 297 298 300 301 304 309 309
275 271 264 260 259 258 256 254 250 245 245 248 253 254 247 239 236 239 243 245 245 245 246 247 248 248 245 242 239 237 238 239 240 246 252 253 253 254 254 254 255 258 260 262 262 263 262 261 260 260 261 261 261 262 261 259 258 256 253 251 252 254 255 256 257 257 260 267 274 276 276 275 277 282 286 288 291 294 297 298 298 300 305 309 308
291 281 270 262 258 256 254 251 247 242 240 242 246 248 245 239 235 235 238 241 244 247 250 252 252 252 250 247 243 239 236 234 235 242 252 254 251 250 251 252 253 256 260 261 261 262 261 260 260 261 263 264 263 262 260 258 255 253 252 250 249 250 252 252 253 257 263 269 272 273 274 276 279 282 285 288 292 297 300 302 303 306 309 309 309
341 317 284 264 252 247 245 242 237 231 228 230 235 240 241 236 231 232 235 239 244 250 254 253 251 253 253 251 248 245 242 238 238 246 258 259 251 249 250 251 252 255 257 260 261 261 260 259 259 261 262 262 262 262 259 253 249 246 244 245 247 248 249 251 254 260 266 269 269 270 271 275 279 282 285 290 293 295 300 303 303 304 303 303 307
59 53 16 260 213 202 206 208 204 202 203 209 218 231 240 239 240 244 244 241 242 246 251 252 251 253 255 253 250 248 247 245 246 256 270 270 259 255 256 256 256 257 259 261 262 263 263 262 261 261 261 261 260 260 258 254 249 245 240 240 245 249 251 253 256 261 266 269 268 269 270 272 276 279 284 290 292 293 298 297 294 299 302 303 310
63 67 66 72 88 98 107 116 132 152 166 185 206 221 232 236 242 252 252 244 238 238 246 254 256 257 259 260 258 254 254 253 253 260 271 276 272 267 265 263 263 262 263 265 265 266 266 267 266 265 265 264 262 260 260 258 255 249 242 237 239 246 250 252 254 260 266 269 268 267 266 268 272 277 282 287 291 295 300 297 294 300 304 305 313
56 59 60 63 72 81 88 94 103 114 123 136 184 233 254 257 258 261 260 254 246 242 247 255 259 259 261 264 265 263 263 266 266 267 271 274 273 270 268 267 266 266 266 266 266 267 267 268 269 268 267 268 266 264 262 261 259 254 247 240 237 239 244 248 253 259 263 265 265 265 265 268 272 276 280 284 289 294 297 297 297 300 303 306 313
55 59 61 62 66 71 77 81 83 84 85 87 90 305 303 293 278 269 265 261 252 248 251 256 259 259 259 261 263 263 264 268 271 272 272 271 269 268 267 265 265 266 266 266 267 268 268 269 270 270 269 269 268 266 263 260 258 254 248 244 241 240 241 245 251 254 256 257 257 256 259 266 272 275 276 278 281 282 284 290 295 298 303 310 313
49 53 57 59 60 62 64 67 69 71 71 70 67 60 51 41 8 297 276 269 261 255 254 252 251 253 255 258 262 263 264 267 270 271 272 272 272 271 269 267 266 266 267 267 268 268 270 271 271 271 270 268 266 264 262 259 257 254 249 245 242 241 243 245 247 247 248 249 248 247 251 257 262 263 260 261 265 268 275 288 296 299 304 311 313
41 44 48 50 50 50 50 52 56 62 67 69 68 66 64 60 49 21 333 294 272 267 264 255 249 250 252 255 261 268 272 274 274 275 276 276 275 274 272 270 269 268 267 268 268 269 270 271 271 272 271 269 267 264 262 260 258 254 250 246 241 239 241 243 241 239 239 238 238 243 248 245 242 241 239 240 244 254 273 291 300 305 308 310 310
40 42 43 43 43 42 41 39 39 41 44 48 52 55 55 53 48 39 26 356 246 254 267 265 259 258 257 256 261 269 274 274 273 273 274 274 275 275 273 271 269 268 268 270 272 273 274 274 274 273 272 271 269 266 263 260 257 254 252 248 243 242 243 240 234 231 230 230 230 232 230 223 221 222 221 219 223 245 289 307 310 310 309 306 305
42 43 43 43 42 41 39 38 36 33 32 32 35 38 40 41 40 37 32 30 36 282 269 269 269 269 267 263 261 259 255 252 256 266 276 284 287 285 283 280 277 275 276 277 278 279 281 281 280 276 271 268 265 263 261 258 255 256 255 249 246 246 242 235 229 226 222 220 218 213 208 208 209 206 200 196 207 296 318 321 315 309 308 305 305
44 45 45 45 43 40 38 38 37 36 35 35 35 36 38 39 38 32 28 32 42 47 31 5 9 12 343 345 46 116 135 114 98 82 58 31 360 337 324 315 312 311 306 298 293 293 296 298 298 292 279 268 262 259 259 257 255 257 255 248 245 243 235 227 225 220 212 210 210 206 201 198 193 184 172 152 22 339 331 326 315 307 306 306 309
47 47 46 44 41 40 39 38 38 40 42 43 43 42 41 41 39 37 38 43 47 50 49 48 55 65 73 75 76 80 82 78 70 61 45 25 7 355 343 331 326 325 323 322 320 318 319 322 326 323 307 283 268 260 258 258 258 255 248 239 236 234 227 220 213 206 205 209 206 196 191 187 176 152 123 97 22 342 338 325 307 300 304 309 315
46 46 45 44 44 42 41 41 41 42 43 44 44 45 45 43 38 38 43 46 47 48 50 54 65 75 80 80 79 78 74 64 48 30 11 354 346 345 340 334 328 322 322 329 332 332 337 341 343 342 334 311 288 272 260 257 255 247 234 222 218 215 211 206 198 192 195 195 184 178 176 166 143 126 118 99 27 355 342 321 298 293 300 308 317
43 43 43 45 46 45 43 42 41 41 42 43 44 46 48 46 40 37 39 42 44 47 49 52 66 79 80 70 60 53 44 22 355 340 331 324 324 329 330 331 331 324 320 324 330 338 350 354 353 357 359 349 326 303 276 256 243 225 208 201 195 186 190 196 191 182 178 175 170 164 153 137 129 129 119 64 18 356 340 325 310 305 309 316 322
42 41 42 44 45 44 41 39 37 35 35 38 42 45 47 49 46 42 40 40 40 42 40 35 39 45 23 6 7 2 351 341 333 326 322 320 321 325 323 321 323 323 320 319 327 343 354 354 357 11 21 26 30 33 34 353 194 173 173 177 169 165 177 186 180 170 166 164 158 143 129 127 126 110 74 34 6 351 341 333 326 324 327 330 331
44 40 39 39 40 38 33 29 27 25 26 31 38 41 42 46 51 50 46 43 39 37 37 34 31 26 13 0 358 357 352 342 331 327 325 324 324 327 330 330 328 322 313 314 331 348 352 346 351 22 51 68 73 76 103 182 172 151 153 161 161 162 167 168 164 161 155 145 136 129 124 121 107 80 53 8 354 348 340 337 335 333 334 334 332
40 38 35 33 32 29 25 21 18 16 18 24 32 38 40 44 48 45 42 40 38 36 38 41 44 43 39 36 32 31 34 34 24 13 8 1 350 348 356 3 3 351 335 338 355 3 3 0 351 351 75 99 116 144 174 193 177 158 154 158 157 156 158 155 151 148 141 135 134 132 123 111 90 61 8 347 349 340 335 336 333 331 333 334 333
29 27 24 23 23 20 18 17 16 18 21 23 26 34 39 41 41 36 29 29 33 37 40 45 48 49 49 52 56 56 52 48 44 40 37 35 34 35 38 36 32 31 32 33 35 36 37 41 39 2 69 97 162 179 179 179 171 162 160 160 158 156 156 153 149 146 143 142 143 135 116 92 43 3 343 339 338 332 332 331 327 328 333 333 332
8 7 6 6 8 11 12 10 9 10 13 17 22 29 33 31 25 17 15 16 21 28 34 40 43 45 48 51 55 53 45 38 36 35 34 37 47 53 52 46 37 34 39 46 56 59 54 51 58 83 126 163 190 185 178 176 174 168 163 160 159 160 159 158 156 154 151 149 147 130 69 7 352 338 326 327 329 328 326 324 324 327 329 328 327
335 338 343 345 348 353 358 3 8 6 2 2 6 11 21 18 352 351 2 11 12 14 22 29 32 36 41 42 40 37 29 23 23 24 24 31 43 50 50 46 39 43 55 63 62 58 54 55 60 66 149 194 191 185 180 180 180 176 170 166 165 166 166 163 160 154 145 128 54 6 351 339 329 322 321 324 324 320 316 316 319 322 322 321 321
322 317 318 321 325 330 334 342 355 1 357 353 351 352 356 352 324 334 351 0 358 358 5 11 15 19 25 29 28 24 17 13 15 17 18 23 33 43 49 50 47 52 64 71 70 67 64 65 67 64 77 153 165 166 167 168 169 170 169 166 162 160 160 158 150 138 84 351 343 340 333 324 319 318 318 317 314 311 309 309 313 315 315 313 313
322 318 312 308 308 310 313 320 334 348 350 347 343 341 339 324 298 308 329 338 344 347 347 349 354 357 1 7 12 12 10 11 14 17 21 24 28 37 51 56 55 59 66 68 70 75 80 84 88 90 97 117 135 141 143 145 146 147 150 145 136 131 149 184 202 281 317 325 323 319 313 309 307 307 306 305 305 304 304 306 309 311 311 310 312
303 307 308 306 305 304 305 308 316 327 338 342 340 336 321 292 283 286 294 303 314 323 324 327 333 337 341 349 355 359 4 10 14 18 26 35 42 50 60 62 60 65 69 67 66 77 90 100 108 113 118 124 130 132 138 147 147 142 148 149 132 280 285 284 283 288 296 302 302 300 298 297 297 297 298 299 300 301 302 304 306 307 307 309 312
290 289 292 298 305 305 304 306 309 313 320 327 330 330 313 284 283 288 287 289 294 298 300 304 309 315 323 333 342 350 360 9 16 23 36 48 55 62 72 76 75 74 73 68 67 81 95 105 113 120 127 134 140 146 158 172 194 230 255 267 274 275 274 275 277 281 286 288 287 287 287 288 289 291 293 295 297 298 299 300 301 303 305 307 309
291 288 285 285 291 297 300 302 302 303 305 307 312 318 312 293 284 282 279 279 284 287 287 290 295 301 310 319 328 343 359 13 27 39 47 55 60 66 72 78 83 87 87 81 81 95 109 116 124 133 143 151 160 171 183 198 218 233 243 252 259 262 265 269 272 274 276 278 278 278 279 280 282 285 288 291 293 295 297 299 301 304 307 310 311
288 289 288 284 282 283 288 294 295 295 296 298 302 305 302 293 285 280 275 272 273 273 275 281 286 289 296 307 317 333 354 16 41 54 57 57 59 61 66 70 77 87 99 116 154 200 225 234 231 231 227 218 214 213 214 218 225 231 238 243 248 253 259 265 268 268 268 270 272 272 273 276 280 284 287 290 293 296 299 302 304 307 311 314 315
281 281 283 283 280 276 275 278 282 286 290 296 298 296 290 285 282 278 275 271 265 257 256 262 272 281 288 296 308 322 340 2 30 48 55 51 45 40 39 40 50 73 177 230 238 239 245 253 257 258 260 260 260 257 254 252 250 248 248 249 250 253 257 259 260 261 263 266 268 271 274 278 283 286 289 292 296 298 300 303 304 305 307 311 313
282 276 274 274 274 272 269 266 267 273 280 287 291 291 287 282 280 278 278 275 268 260 254 255 261 270 278 286 295 307 319 333 354 14 27 30 26 12 349 337 320 299 283 270 262 259 257 256 257 259 261 263 265 265 265 265 265 263 263 262 261 262 263 263 264 265 266 269 272 276 280 283 285 288 291 293 294 295 296 296 297 299 302 307 309
281 277 274 273 271 267 265 262 260 261 268 275 280 282 281 279 278 276 276 276 273 267 261 260 261 263 268 274 281 287 294 305 324 341 349 351 351 345 328 307 297 298 297 291 286 282 275 267 265 266 264 265 268 270 270 270 270 269 267 265 265 266 267 269 271 273 276 279 281 283 284 286 286 287 288 288 288 290 292 293 295 299 303 308 310
276 271 269 270 269 268 266 263 259 256 258 264 269 271 271 271 271 263 257 264 274 269 261 257 255 254 256 262 267 268 269 282 304 321 328 328 323 319 315 311 307 304 303 304 306 307 304 298 291 285 281 278 279 280 281 282 281 279 278 278 278 277 277 278 281 283 285 286 286 285 284 285 285 286 287 288 290 294 296 296 295 300 306 314 323
278 273 268 266 266 265 264 262 258 256 254 254 256 258 258 260 261 255 249 255 268 271 265 256 250 245 245 249 249 247 250 265 290 305 309 310 315 314 311 312 312 312 314 315 314 315 317 314 306 299 293 289 286 286 290 292 291 291 293 293 291 291 294 296 295 292 289 288 287 286 287 291 294 296 297 298 298 298 296 294 292 297 303 307 314
278 277 274 271 268 266 264 260 258 256 255 254 254 252 249 249 255 256 255 258 266 270 265 256 249 246 247 245 239 234 240 254 271 289 294 301 310 313 312 315 317 314 313 312 309 309 310 308 303 297 288 280 278 280 281 281 284 287 289 290 293 299 307 310 310 308 309 309 308 306 305 306 306 303 300 298 296 298 301 299 296 300 306 305 311
283 279 276 273 272 270 268 265 261 258 257 256 256 253 250 250 255 256 255 256 262 265 259 251 248 246 243 239 236 235 240 250 264 282 294 302 309 310 309 312 313 311 310 307 302 301 299 294 290 286 274 267 270 274 272 272 276 280 281 286 296 306 316 326 342 359 354 342 335 330 323 315 306 300 301 306 310 315 321 321 311 304 306 309 315
301 290 282 277 275 273 270 267 264 262 261 258 256 254 253 253 254 253 251 252 256 258 252 245 241 237 230 227 230 235 243 255 270 285 296 302 306 306 305 306 307 307 308 304 297 297 292 282 270 261 255 256 261 264 263 265 270 275 281 291 301 312 333 15 27 19 15 10 9 13 9 1 349 342 346 355 354 349 342 335 319 307 306 310 317
314 303 292 284 279 275 271 267 264 263 263 261 259 257 255 253 252 252 250 248 249 250 246 238 233 230 226 225 229 237 246 260 273 283 291 296 300 301 303 305 305 305 304 300 296 292 279 255 230 224 235 246 252 254 256 262 270 278 287 296 303 319 43 42 42 50 45 31 27 35 40 32 17 7 8 9 2 353 344 334 324 317 312 313 318
324 312 296 282 275 271 268 265 263 261 261 262 262 261 259 255 250 248 246 244 241 238 233 227 224 226 229 230 236 244 252 262 271 277 282 285 289 293 296 299 301 303 303 301 294 263 219 198 197 211 227 235 241 249 258 269 278 285 291 292 262 146 79 47 65 75 65 49 44 47 45 34 18 4 359 355 350 343 337 331 327 323 317 315 319
Height
1558 1559 1561 1562 1564 1565 1567 1568 1570 1571 1573 1574 1576 1577 1579 1580 1581 1583 1584 1585 1586 1586 1587 1588 1589 1590 1591 1592 1593 1593 1594 1594 1595 1595 1596 1596 1597 1597 1597 1597 1598 1598 1598 1598 1598 1599 1599 1599 1599 1599 1599 1599 1599 1599 1599 1599 1599 1599 1599 1598 1598 1598 1598 1597 1597 1596 1596 1595 1595 1594 1594 1593 1592 1591 1591 1590 1589 1588 1587 1587 1586 1585 1584 1583 1582
1556 1558 1559 1560 1561 1563 1565 1566 1568 1569 1571 1572 1574 1575 1577 1578 1579 1581 1582 1583 1584 1585 1586 1587 1588 1588 1589 1590 1591 1591 1592 1593 1593 1594 1594 1594 1595 1595 1596 1596 1596 1596 1596 1597 1597 1597 1597 1597 1597 1598 1598 1597 1597 1598 1598 1598 1598 1598 1597 1597 1596 1596 1596 1596 1596 1595 1595 1594 1594 1593 1592 1592 1592 1591 1590 1589 1588 1587 1587 1586 1585 1584 1583 1582 1581
1554 1556 1557 1559 1560 1562 1563 1564 1565 1567 1568 1570 1571 1573 1575 1576 1577 1579 1580 1581 1582 1583 1584 1585 1586 1586 1587 1588 1589 1589 1590 1591 1591 1592 1592 1593 1593 1593 1594 1594 1594 1594 1595 1595 1595 1595 1595 1595 1596 1596 1596 1596 1596 1596 1596 1596 1596 1596 1596 1595 1595 1595 1595 1595 1595 1594 1594 1593 1593 1593 1592 1591 1590 1589 1588 1588 1587 1586 1586 1585 1584 1583 1582 1581 1580
1552 1554 1556 1558 1559 1561 1561 1562 1564 1565 1566 1568 1569 1571 1573 1574 1575 1576 1578 1579 1580 1581 1582 1583 1584 1584 1585 1586 1586 1587 1588 1589 1589 1590 1590 1591 1591 1591 1592 1592 1592 1592 1593 1593 1593 1594 1594 1594 1594 1594 1594 1594 1594 1594 1594 1595 1595 1594 1594 1594 1594 1594 1594 1593 1593 1593 1593 1593 1592 1591 1591 1590 1589 1588 1587 1586 1586 1585 1584 1584 1583 1582 1581 1580 1579
1550 1552 1554 1556 1558 1559 1560 1561 1562 1563 1564 1566 1567 1569 1570 1571 1573 1574 1575 1577 1578 1579 1580 1581 1581 1582 1583 1584 1584 1585 1585 1586 1587 1587 1588 1589 1589 1590 1590 1590 1590 1590 1591 1591 1591 1592 1592 1592 1592 1592 1592 1592 1592 1593 1593 1593 1593 1593 1593 1593 1593 1593 1592 1592 1592 1592 1591 1591 1591 1590 1589 1589 1588 1587 1586 1585 1585 1584 1583 1583 1582 1581 1580 1579 1578
1547 1549 1552 1554 1555 1557 1558 1559 1560 1561 1563 1564 1565 1567 1568 1569 1570 1571 1573 1574 1575 1576 1577 1578 1579 1580 1581 1581 1582 1582 1583 1584 1584 1585 1586 1586 1587 1587 1588 1588 1588 1589 1589 1589 1589 1590 1590 1590 1590 1590 1590 1590 1591 1591 1591 1591 1591 1591 1591 1591 1591 1591 1591 1591 1590 1590 1590 1590 1589 1589 1588 1588 1587 1586 1585 1584 1583 1583 1582 1582 1581 1580 1579 1578 1576
1544 1547 1550 1551 1552 1553 1556 1557 1558 1559 1560 1562 1563 1564 1566 1567 1568 1569 1571 1572 1573 1574 1575 1576 1577 1577 1578 1579 1579 1580 1581 1581 1582 1582 1583 1584 1584 1585 1585 1586 1586 1586 1587 1587 1588 1588 1588 1588 1588 1588 1588 1589 1589 1589 1589 1589 1589 1590 1590 1590 1590 1589 1589 1589 1589 1588 1588 1588 1588 1588 1587 1587 1586 1585 1584 1583 1582 1581 1581 1580 1579 1578 1577 1576 1575
1541 1543 1546 1547 1548 1549 1552 1554 1555 1556 1557 1559 1560 1562 1563 1565 1566 1567 1569 1569 1570 1571 1572 1573 1574 1575 1576 1577 1577 1578 1578 1579 1579 1580 1580 1581 1582 1582 1583 1584 1584 1584 1585 1585 1586 1586 1586 1586 1586 1586 1586 1586 1587 1587 1587 1587 1587 1588 1588 1588 1588 1588 1588 1587 1587 1587 1587 1586 1586 1586 1585 1585 1584 1583 1583 1582 1581 1580 1580 1579 1578 1577 1576 1574 1573
1538 1540 1542 1543 1544 1546 1548 1551 1552 1553 1554 1555 1557 1559 1560 1562 1563 1565 1566 1567 1568 1569 1570 1571 1572 1573 1574 1574 1575 1576 1576 1576 1577 1577 1578 1579 1579 1580 1581 1581 1582 1582 1583 1583 1584 1584 1584 1584 1584 1584 1584 1584 1584 1585 1585 1585 1585 1585 1585 1585 1585 1586 1586 1586 1585 1585 1585 1584 1584 1584 1584 1583 1583 1582 1582 1581 1580 1579 1578 1577 1576 1575 1574 1573 1572
1535 1537 1538 1539 1541 1543 1546 1548 1548 1550 1551 1552 1553 1555 1556 1558 1560 1561 1563 1565 1566 1567 1568 1569 1570 1571 1571 1572 1573 1573 1574 1574 1575 1576 1576 1577 1577 1578 1578 1579 1579 1580 1580 1581 1581 1581 1581 1582 1581 1581 1582 1582 1582 1582 1583 1583 1583 1583 1583 1583 1583 1584 1584 1584 1584 1583 1582 1582 1582 1582 1582 1582 1582 1581 1580 1579 1579 1578 1577 1576 1575 1574 1573 1571 1570
1533 1533 1535 1537 1538 1540 1543 1545 1546 1547 1548 1548 1550 1551 1552 1554 1556 1558 1560 1561 1563 1564 1566 1567 1567 1568 1569 1570 1570 1571 1571 1572 1573 1574 1575 1575 1575 1575 1576 1576 1577 1577 1578 1578 1579 1579 1579 1579 1579 1579 1579 1579 1580 1580 1580 1581 1581 1581 1581 1581 1581 1581 1581 1581 1582 1581 1580 1580 1580 1580 1580 1580 1580 1579 1579 1578 1577 1576 1575 1574 1573 1572 1571 1570 1569
1530 1530 1532 1533 1534 1536 1539 1541 1543 1544 1545 1546 1547 1548 1549 1550 1552 1554 1556 1558 1559 1561 1563 1564 1565 1566 1566 1567 1568 1568 1569 1570 1571 1572 1572 1573 1574 1573 1573 1574 1574 1574 1575 1575 1576 1576 1576 1577 1577 1577 1577 1577 1577 1578 1578 1578 1579 1579 1579 1579 1579 1579 1579 1579 1579 1579 1578 1578 1578 1578 1578 1578 1577 1577 1577 1576 1575 1574 1573 1573 1572 1571 1570 1569 1568
1527 1528 1529 1530 1530 1532 1534 1536 1538 1540 1541 1543 1545 1545 1546 1547 1549 1551 1553 1555 1557 1558 1560 1561 1562 1563 1564 1564 1565 1566 1566 1567 1569 1570 1570 1571 1571 1571 1571 1571 1571 1572 1572 1572 1573 1573 1574 1574 1574 1574 1575 1574 1574 1575 1575 1576 1576 1576 1576 1576 1577 1576 1576 1577 1577 1576 1576 1576 1576 1576 1576 1576 1575 1575 1575 1574 1573 1573 1572 1571 1571 1570 1568 1567 1566
1523 1525 1526 1526 1527 1529 1531 1532 1534 1536 1538 1541 1543 1544 1544 1544 1545 1548 1551 1552 1554 1556 1557 1558 1559 1561 1561 1562 1562 1563 1564 1565 1566 1567 1568 1568 1569 1568 1568 1568 1568 1569 1569 1569 1570 1570 1571 1571 1571 1571 1571 1571 1571 1572 1573 1573 1573 1573 1573 1573 1574 1573 1574 1574 1574 1574 1574 1574 1574 1574 1574 1574 1573 1573 1572 1572 1571 1571 1570 1570 1569 1568 1567 1566 1565
1521 1522 1523 1523 1524 1525 1527 1528 1530 1532 1534 1537 1540 1542 1542 1542 1543 1546 1548 1550 1551 1553 1554 1555 1556 1558 1559 1559 1560 1560 1561 1561 1562 1563 1564 1565 1566 1565 1565 1565 1565 1565 1566 1566 1567 1567 1567 1568 1568 1568 1568 1568 1568 1569 1570 1570 1570 1570 1570 1570 1570 1570 1571 1571 1572 1572 1572 1572 1572 1571 1571 1571 1571 1571 1570 1570 1569 1569 1568 1568 1567 1566 1565 1564 1563
1518 1518 1518 1518 1519 1520 1522 1524 1526 1528 1531 1533 1536 1539 1539 1540 1541 1543 1544 1546 1548 1550 1551 1553 1553 1554 1555 1556 1557 1557 1557 1558 1558 1559 1560 1561 1562 1562 1562 1562 1562 1563 1563 1563 1563 1564 1564 1564 1565 1565 1565 1565 1566 1566 1567 1567 1568 1568 1568 1568 1568 1568 1568 1569 1569 1569 1569 1569 1569 1569 1568 1568 1568 1568 1568 1568 1568 1567 1566 1566 1565 1564 1564 1563 1563
1517 1517 1516 1515 1516 1517 1519 1521 1522 1524 1527 1531 1533 1536 1537 1537 1538 1540 1541 1543 1546 1548 1549 1550 1549 1550 1552 1553 1554 1555 1555 1555 1556 1556 1556 1557 1557 1558 1559 1559 1559 1559 1560 1560 1560 1560 1561 1561 1561 1561 1561 1562 1562 1563 1564 1564 1563 1564 1564 1566 1566 1566 1565 1566 1567 1567 1567 1567 1566 1566 1566 1566 1566 1565 1565 1566 1566 1565 1565 1564 1563 1563 1563 1562 1562
1520 1519 1519 1518 1517 1517 1519 1520 1521 1522 1525 1528 1531 1533 1535 1536 1537 1538 1540 1542 1543 1545 1547 1547 1547 1548 1549 1550 1551 1552 1551 1552 1553 1554 1554 1554 1553 1554 1555 1556 1556 1556 1556 1557 1557 1557 1557 1557 1557 1558 1558 1558 1559 1560 1560 1560 1560 1560 1560 1562 1563 1563 1563 1563 1564 1564 1564 1564 1564 1563 1563 1563 1563 1563 1563 1563 1563 1563 1563 1563 1562 1562 1562 1561 1561
1523 1523 1522 1521 1521 1520 1521 1521 1522 1522 1524 1526 1529 1531 1532 1534 1535 1537 1539 1541 1541 1542 1543 1544 1545 1546 1547 1548 1549 1548 1548 1549 1549 1550 1551 1551 1550 1550 1552 1553 1553 1553 1553 1553 1554 1554 1553 1554 1554 1554 1554 1555 1555 1556 1557 1557 1557 1557 1557 1557 1558 1560 1560 1561 1561 1561 1561 1561 1560 1560 1560 1560 1560 1560 1560 1560 1560 1561 1561 1561 1561 1560 1560 1560 1559
1526 1525 1524 1524 1523 1523 1523 1523 1523 1523 1524 1525 1527 1529 1531 1532 1534 1536 1537 1539 1539 1539 1540 1542 1543 1544 1544 1545 1546 1546 1545 1545 1545 1546 1547 1549 1548 1548 1549 1550 1550 1550 1550 1550 1550 1550 1550 1550 1550 1550 1550 1551 1551 1552 1553 1553 1553 1553 1553 1552 1553 1554 1555 1556 1558 1559 1558 1558 1557 1557 1557 1557 1557 1557 1557 1558 1558 1558 1558 1558 1559 1559 1559 1558 1558
1529 1528 1527 1527 1527 1526 1525 1525 1524 1524 1523 1524 1526 1528 1530 1532 1533 1535 1536 1537 1536 1536 1537 1540 1541 1542 1542 1542 1543 1543 1543 1542 1542 1543 1544 1545 1545 1546 1546 1547 1547 1547 1546 1545 1545 1545 1545 1545 1545 1545 1546 1547 1547 1548 1549 1548 1548 1547 1547 1548 1548 1549 1550 1551 1553 1556 1556 1555 1554 1554 1554 1555 1556 1556 1556 1556 1556 1556 1556 1556 1557 1557 1557 1557 1556
1531 1531 1530 1530 1529 1529 1528 1527 1525 1525 1525 1526 1527 1529 1531 1532 1534 1535 1535 1535 1534 1534 1536 1538 1539 1539 1539 1540 1540 1540 1540 1540 1539 1540 1541 1541 1542 1543 1543 1543 1543 1542 1541 1541 1541 1541 1541 1540 1540 1540 1541 1542 1542 1543 1544 1544 1543 1543 1543 1544 1545 1546 1546 1546 1548 1551 1552 1551 1551 1551 1551 1552 1553 1554 1554 1554 1554 1554 1555 1554 1555 1555 1555 1555 1555
1533 1532 1531 1530 1530 1530 1529 1528 1527 1527 1527 1528 1529 1530 1532 1533 1534 1534 1534 1533 1533 1534 1535 1536 1537 1537 1537 1538 1538 1537 1537 1537 1537 1537 1538 1538 1538 1538 1538 1538 1538 1538 1537 1537 1537 1537 1536 1536 1535 1535 1536 1536 1537 1538 1539 1539 1539 1539 1540 1541 1542 1543 1544 1544 1544 1546 1547 1548 1548 1548 1548 1549 1550 1551 1552 1552 1553 1553 1553 1553 1553 1553 1553 1553 1553
1534 1532 1532 1531 1531 1530 1530 1529 1529 1529 1529 1529 1530 1531 1531 1532 1533 1533 1533 1533 1533 1534 1535 1535 1535 1535 1535 1534 1534 1534 1534 1534 1534 1534 1535 1535 1536 1536 1536 1535 1535 1535 1534 1534 1533 1533 1532 1532 1531 1531 1531 1530 1531 1532 1532 1533 1534 1535 1536 1537 1538 1539 1540 1541 1542 1542 1544 1545 1545 1544 1545 1547 1548 1549 1550 1551 1551 1551 1551 1552 1552 1552 1552 1552 1551
1534 1534 1533 1533 1532 1532 1531 1531 1530 1530 1530 1530 1530 1530 1531 1532 1533 1533 1533 1533 1533 1533 1533 1533 1533 1532 1532 1531 1531 1531 1532 1532 1532 1533 1534 1534 1535 1534 1534 1533 1533 1532 1532 1531 1531 1530 1529 1528 1527 1526 1525 1525 1525 1525 1526 1527 1529 1530 1532 1532 1533 1533 1535 1537 1538 1540 1541 1542 1542 1542 1542 1544 1546 1547 1549 1549 1550 1550 1550 1550 1550 1550 1550 1550 1550
1535 1535 1534 1534 1534 1533 1533 1533 1532 1532 1531 1531 1531 1531 1531 1532 1532 1532 1532 1532 1532 1533 1532 1532 1531 1531 1530 1529 1530 1531 1531 1531 1532 1532 1533 1533 1533 1533 1533 1532 1531 1531 1530 1530 1529 1528 1527 1525 1523 1521 1520 1519 1519 1521 1522 1524 1525 1526 1528 1528 1527 1529 1531 1533 1535 1537 1538 1539 1539 1539 1540 1543 1545 1546 1547 1549 1549 1550 1549 1549 1549 1549 1549 1549 1549
1536 1536 1535 1535 1535 1534 1534 1534 1534 1533 1533 1533 1532 1532 1532 1532 1532 1532 1532 1532 1532 1533 1532 1532 1531 1531 1530 1530 1530 1531 1531 1531 1532 1532 1532 1532 1532 1532 1531 1531 1530 1530 1529 1528 1527 1526 1525 1523 1521 1519 1516 1515 1516 1517 1519 1520 1521 1522 1524 1525 1525 1526 1529 1530 1532 1534 1536 1537 1537 1538 1540 1543 1544 1545 1547 1548 1549 1549 1549 1549 1549 1549 1549 1548 1548
1537 1536 1536 1536 1536 1535 1535 1535 1535 1535 1534 1534 1534 1533 1533 1533 1533 1532 1532 1533 1532 1532 1532 1532 1532 1532 1532 1531 1531 1531 1531 1532 1532 1532 1532 1532 1532 1531 1531 1530 1530 1529 1528 1527 1526 1525 1524 1522 1520 1518 1516 1514 1515 1516 1517 1517 1518 1520 1521 1522 1523 1524 1527 1529 1530 1531 1534 1535 1536 1537 1540 1542 1544 1545 1547 1548 1548 1548 1548 1548 1548 1548 1548 1548 1547
1538 1537 1537 1537 1537 1536 1536 1536 1536 1536 1536 1535 1535 1535 1534 1534 1534 1533 1533 1533 1533 1533 1533 1533 1532 1532 1532 1532 1532 1532 1532 1532 1532 1532 1532 1531 1531 1530 1529 1529 1528 1528 1527 1527 1526 1525 1523 1522 1520 1519 1517 1516 1516 1516 1516 1517 1518 1519 1519 1521 1522 1524 1526 1529 1530 1531 1533 1535 1536 1537 1540 1542 1544 1545 1547 1547 1547 1547 1547 1547 1547 1547 1547 1547 1546
1539 1538 1538 1538 1538 1538 1538 1538 1537 1537 1537 1537 1536 1536 1536 1536 1535 1535 1534 1534 1534 1534 1534 1533 1533 1533 1533 1533 1532 1532 1532 1532 1532 1531 1531 1530 1530 1529 1528 1528 1527 1527 1526 1526 1525 1524 1523 1522 1521 1520 1519 1519 1518 1518 1518 1518 1519 1520 1520 1521 1522 1524 1527 1529 1530 1532 1534 1535 1536 1537 1540 1542 1544 1545 1546 1546 1546 1546 1546 1546 1546 1546 1546 1546 1545
1539 1539 1539 1539 1538 1538 1538 1538 1538 1538 1538 1538 1537 1537 1537 1537 1537 1536 1536 1536 1536 1535 1535 1534 1534 1533 1533 1532 1532 1532 1532 1531 1531 1531 1530 1530 1529 1528 1527 1526 1526 1525 1525 1525 1524 1524 1524 1523 1522 1522 1521 1521 1520 1521 1521 1521 1521 1522 1523 1523 1524 1526 1528 1531 1532 1533 1534 1535 1537 1538 1540 1541 1542 1543 1545 1545 1545 1545 1545 1545 1545 1545 1545 1545 1544
1540 1540 1539 1539 1539 1539 1539 1539 1539 1538 1538 1538 1538 1538 1538 1538 1537 1537 1537 1537 1537 1537 1536 1536 1535 1534 1533 1533 1532 1532 1532 1531 1531 1531 1530 1529 1528 1527 1526 1526 1525 1525 1525 1524 1524 1524 1524 1523 1523 1523 1522 1522 1522 1522 1522 1523 1523 1524 1525 1525 1526 1528 1530 1532 1533 1534 1535 1537 1538 1539 1540 1540 1541 1542 1543 1544 1544 1544 1544 1544 1544 1544 1544 1544 1543
1540 1540 1540 1540 1539 1539 1539 1539 1539 1539 1538 1538 1538 1538 1538 1538 1538 1538 1538 1538 1538 1537 1537 1536 1536 1535 1534 1534 1533 1533 1532 1532 1531 1531 1530 1529 1527 1526 1526 1525 1525 1525 1525 1524 1523 1523 1523 1523 1523 1523 1523 1523 1523 1523 1523 1524 1524 1525 1526 1528 1529 1530 1532 1533 1534 1535 1536 1538 1539 1539 1540 1540 1541 1541 1542 1542 1543 1543 1543 1543 1543 1543 1543 1543 1542
1541 1541 1540 1540 1540 1540 1539 1539 1539 1539 1538 1538 1538 1538 1538 1538 1538 1538 1538 1538 1538 1538 1537 1537 1536 1536 1535 1535 1534 1534 1533 1532 1532 1531 1530 1529 1528 1527 1526 1526 1526 1525 1525 1525 1524 1523 1523 1523 1523 1523 1523 1523 1524 1524 1525 1526 1527 1527 1528 1529 1530 1531 1532 1534 1535 1536 1537 1538 1539 1540 1540 1540 1540 1541 1541 1541 1541 1541 1541 1542 1542 1542 1542 1541 1541
1542 1541 1541 1540 1540 1540 1540 1539 1539 1539 1538 1538 1538 1538 1538 1538 1538 1538 1538 1538 1538 1538 1537 1537 1537 1536 1536 1535 1535 1534 1534 1533 1532 1531 1530 1530 1529 1528 1527 1527 1527 1526 1526 1525 1525 1524 1524 1523 1523 1523 1524 1524 1524 1526 1527 1528 1529 1529 1529 1530 1531 1532 1533 1534 1535 1536 1537 1538 1539 1540 1540 1540 1541 1541 1540 1540 1540 1540 1540 1540 1540 1540 1540 1539 1539
1542 1541 1541 1541 1540 1540 1540 1539 1539 1539 1539 1538 1538 1538 1538 1538 1538 1538 1538 1538 1538 1537 1537 1537 1537 1537 1536 1536 1535 1535 1534 1533 1533 1532 1531 1530 1530 1529 1529 1528 1528 1527 1527 1526 1526 1526 1525 1525 1524 1524 1525 1526 1527 1528 1529 1530 1531 1531 1532 1532 1533 1534 1535 1535 1536 1536 1537 1538 1538 1539 1540 1541 1541 1540 1540 1540 1540 1539 1539 1539 1539 1538 1538 1537 1536
1541 1541 1541 1540 1540 1539 1539 1539 1539 1538 1538 1538 1538 1537 1537 1537 1537 1537 1537 1537 1537 1537 1537 1537 1537 1537 1536 1536 1536 1535 1534 1534 1533 1532 1531 1530 1530 1530 1530 1530 1529 1529 1529 1528 1528 1527 1527 1527 1526 1526 1527 1528 1529 1530 1531 1532 1532 1532 1533 1534 1534 1535 1536 1536 1536 1536 1537 1537 1537 1538 1539 1540 1540 1540 1539 1539 1539 1538 1538 1537 1536 1535 1535 1534 1533
1540 1540 1539 1539 1539 1539 1538 1538 1538 1538 1538 1537 1537 1537 1537 1537 1537 1537 1537 1537 1537 1537 1537 1537 1537 1537 1536 1536 1536 1535 1534 1534 1533 1532 1532 1531 1530 1530 1530 1530 1531 1530 1530 1530 1530 1529 1529 1529 1529 1529 1529 1529 1530 1531 1531 1532 1532 1533 1533 1534 1535 1535 1536 1536 1536 1536 1536 1536 1537 1537 1538 1538 1538 1538 1538 1537 1537 1536 1535 1534 1534 1533 1532 1531 1530
1539 1539 1538 1538 1538 1538 1537 1537 1537 1537 1537 1537 1537 1536 1536 1537 1536 1536 1536 1536 1536 1536 1536 1536 1536 1536 1536 1536 1535 1535 1534 1534 1533 1533 1532 1531 1531 1531 1531 1531 1531 1531 1531 1531 1531 1531 1531 1531 1531 1530 1530 1530 1530 1531 1531 1531 1532 1532 1533 1534 1534 1535 1535 1535 1536 1536 1535 1535 1535 1535 1535 1535 1535 1535 1535 1535 1534 1533 1533 1532 1531 1530 1530 1529 1528
1538 1538 1537 1537 1536 1536 1536 1536 1536 1536 1536 1536 1536 1536 1536 1536 1536 1536 1536 1535 1535 1535 1535 1535 1535 1535 1535 1535 1535 1535 1534 1534 1533 1533 1532 1532 1532 1531 1531 1531 1531 1532 1532 1532 1532 1532 1532 1532 1532 1531 1531 1531 1531 1531 1531 1531 1531 1532 1532 1533 1533 1533 1533 1534 1534 1534 1534 1534 1533 1533 1533 1532 1532 1532 1532 1531 1531 1531 1530 1530 1529 1527 1526 1526 1525
1537 1536 1536 1535 1535 1535 1534 1534 1534 1534 1534 1534 1534 1534 1535 1535 1535 1535 1535 1535 1534 1534 1534 1534 1534 1534 1534 1534 1534 1534 1534 1534 1533 1533 1532 1532 1532 1532 1532 1532 1532 1532 1532 1532 1532 1532 1532 1532 1532 1532 1531 1531 1531 1531 1531 1531 1531 1531 1531 1531 1531 1531 1531 1531 1531 1531 1531 1531 1531 1531 1530 1530 1529 1529 1528 1528 1528 1528 1527 1527 1526 1525 1524 1524 1523
1535 1534 1534 1534 1533 1533 1533 1533 1533 1533 1533 1533 1533 1533 1533 1533 1533 1534 1534 1534 1534 1534 1533 1533 1533 1533 1534 1534 1533 1533 1533 1533 1533 1533 1532 1532 1532 1532 1532 1532 1532 1531 1531 1531 1531 1531 1531 1531 1531 1531 1531 1531 1531 1531 1530 1530 1530 1530 1530 1530 1529 1529 1529 1529 1529 1529 1529 1529 1528 1528 1527 1526 1526 1525 1525 1525 1525 1525 1524 1524 1524 1523 1523 1522 1522
1532 1532 1532 1532 1532 1532 1531 1531 1531 1531 1531 1531 1531 1531 1531 1532 1532 1532 1532 1533 1533 1533 1533 1533 1533 1533 1533 1533 1533 1533 1533 1532 1532 1532 1532 1532 1532 1531 1531 1531 1531 1531 1531 1530 1530 1530 1530 1530 1530 1530 1530 1530 1530 1529 1529 1529 1529 1529 1529 1528 1528 1527 1527 1527 1526 1526 1526 1525 1525 1524 1524 1524 1523 1523 1522 1522 1522 1522 1522 1523 1523 1522 1522 1521 1521
1530 1530 1530 1530 1530 1530 1530 1529 1529 1529 1529 1529 1530 1530 1530 1530 1530 1530 1531 1531 1531 1531 1532 1532 1532 1532 1532 1532 1532 1532 1532 1532 1531 1531 1531 1531 1531 1530 1530 1530 1530 1530 1530 1529 1529 1529 1529 1529 1529 1529 1528 1528 1528 1528 1528 1527 1527 1527 1527 1526 1526 1525 1525 1524 1524 1523 1523 1523 1522 1522 1521 1521 1521 1520 1520 1520 1520 1521 1521 1521 1521 1521 1520 1520 1520
1529 1529 1528 1528 1528 1528 1528 1527 1527 1527 1527 1527 1527 1528 1528 1528 1529 1529 1529 1529 1529 1530 1530 1530 1530 1531 1531 1531 1531 1531 1531 1530 1530 1530 1530 1530 1530 1529 1529 1529 1529 1529 1528 1528 1528 1527 1527 1527 1527 1527 1527 1527 1526 1526 1526 1526 1525 1525 1524 1524 1523 1523 1522 1522 1521 1521 1521 1521 1520 1520 1519 1519 1519 1519 1519 1519 1519 1519 1520 1520 1520 1519 1519 1518 1518
1526 1526 1526 1526 1526 1526 1526 1526 1526 1525 1525 1525 1525 1526 1526 1526 1526 1527 1527 1527 1528 1528 1528 1528 1529 1529 1529 1530 1530 1530 1530 1529 1529 1529 1529 1529 1529 1528 1528 1528 1527 1527 1527 1527 1527 1526 1526 1526 1526 1525 1525 1525 1525 1525 1524 1524 1524 1523 1523 1522 1522 1521 1520 1520 1519 1519 1519 1519 1518 1518 1518 1518 1518 1518 1518 1518 1518 1519 1519 1519 1519 1518 1518 1518 1517
1523 1523 1523 1524 1524 1524 1524 1524 1523 1523 1523 1523 1524 1524 1524 1524 1524 1525 1525 1526 1526 1526 1526 1526 1527 1527 1527 1527 1528 1528 1528 1528 1528 1528 1528 1528 1527 1527 1527 1526 1526 1526 1526 1525 1525 1525 1525 1524 1524 1524 1524 1524 1524 1523 1523 1523 1522 1522 1522 1521 1520 1520 1519 1519 1518 1518 1518 1518 1518 1517 1517 1517 1517 1518 1518 1518 1518 1518 1518 1518 1517 1517 1517 1517 1516
1520 1520 1520 1520 1521 1521 1521 1521 1521 1521 1521 1521 1521 1521 1521 1522 1522 1523 1523 1524 1524 1524 1525 1525 1525 1525 1525 1525 1526 1526 1527 1527 1527 1526 1526 1526 1526 1526 1525 1525 1525 1525 1524 1524 1524 1523 1523 1523 1522 1522 1522 1522 1522 1522 1522 1521 1521 1521 1520 1520 1519 1519 1518 1518 1518 1518 1518 1517 1517 1517 1517 1517 1517 1517 1517 1517 1517 1517 1517 1516 1516 1516 1516 1516 1516
1518 1518 1518 1518 1518 1518 1518 1518 1519 1519 1519 1518 1519 1519 1519 1519 1520 1520 1521 1522 1522 1522 1523 1523 1523 1524 1524 1524 1524 1525 1525 1525 1525 1525 1525 1525 1525 1525 1524 1524 1524 1523 1523 1523 1522 1521 1521 1521 1520 1521 1521 1521 1521 1521 1520 1520 1520 1519 1519 1519 1518 1518 1518 1518 1518 1518 1518 1517 1517 1517 1517 1516 1516 1516 1516 1516 1516 1516 1516 1516 1516 1516 1515 1515 1515
1516 1516 1516 1516 1516 1516 1516 1516 1516 1516 1516 1516 1516 1516 1516 1516 1517 1517 1518 1519 1520 1520 1520 1521 1522 1522 1522 1522 1523 1523 1523 1524 1524 1523 1523 1523 1523 1523 1523 1522 1522 1521 1521 1521 1520 1520 1519 1519 1519 1519 1519 1520 1520 1519 1519 1519 1519 1518 1518 1518 1518 1517 1518 1518 1518 1518 1517 1517 1517 1517 1516 1516 1516 1516 1516 1516 1516 1515 1515 1515 1515 1514 1514 1514 1513
1515 1515 1514 1514 1514 1514 1513 1513 1513 1513 1513 1513 1513 1513 1513 1513 1514 1515 1516 1516 1517 1518 1518 1519 1520 1520 1520 1521 1521 1521 1522 1522 1522 1522 1522 1522 1521 1521 1521 1521 1520 1520 1519 1518 1518 1518 1517 1517 1517 1518 1519 1519 1519 1518 1518 1518 1518 1517 1517 1517 1517 1517 1517 1517 1517 1518 1517 1517 1517 1517 1517 1516 1516 1516 1516 1516 1515 1515 1515 1514 1514 1513 1513 1513 1513